CW3712 Weather Reports


time (UTC)temp
F
wind
direction
speed
knots
gust
knots
rain 1hr
in
rain 24hr
in
rain mn
in
humidity
%
barometer
mb
20260505163025 79 245 5.2 14.8 0.00 0.00 0.00 41 1009.3
20260505161531 78 276 7.0 14.8 0.00 0.00 0.00 41 1009.4
20260505153052 76 316 2.6 8.7 0.00 0.00 0.00 46 1010.0
20260505151546 75 200 3.5 10.4 0.00 0.00 0.00 48 1009.9
20260505124511 67 212 7.0 18.2 0.00 0.00 0.00 57 1010.3
20260505123012 66 245 7.8 13.9 0.00 0.00 0.00 58 1010.3
20260505121515 66 262 3.5 9.6 0.00 0.00 0.00 60 1010.4
20260505120019 65 240 6.1 10.4 0.00 0.00 0.00 62 1010.4
20260505114522 63 235 4.3 7.8 0.00 0.00 0.00 65 1010.3
20260505113032 62 224 3.5 7.0 0.00 0.00 0.00 67 1010.4
20260505111548 61 216 1.7 6.1 0.00 0.00 0.00 69 1010.4
20260505101548 57 220 1.7 7.8 0.00 0.00 0.00 73 1010.2
20260505100052 57 230 0.9 3.5 0.00 0.00 0.00 74 1010.3
20260505094558 58 282 0.0 2.6 0.00 0.00 0.00 72 1009.8
20260505093006 58 282 0.9 2.6 0.00 0.00 0.00 72 1009.4
20260505091514 58 253 0.9 3.5 0.00 0.00 0.00 72 1009.2
20260505090017 58 270 0.0 4.3 0.00 0.00 0.00 72 1009.3
20260505084515 58 249 0.0 3.5 0.00 0.00 0.00 71 1009.5
20260505083014 57 272 1.7 3.5 0.00 0.00 0.00 72 1009.6
20260505081522 57 272 0.0 2.6 0.00 0.00 0.00 71 1009.3
20260505080031 57 272 0.9 1.7 0.00 0.00 0.00 70 1009.4
20260505074505 57 272 0.9 2.6 0.00 0.00 0.00 70 1009.5
20260505073012 58 272 0.0 1.7 0.00 0.00 0.00 68 1009.4
20260505071515 58 272 0.9 2.6 0.00 0.00 0.00 67 1009.4
20260505070020 58 272 0.9 1.7 0.00 0.00 0.00 66 1009.4
20260505064533 59 239 0.0 1.7 0.00 0.00 0.00 66 1009.3
20260505063027 59 239 0.9 2.6 0.00 0.00 0.00 65 1009.4
20260505061527 59 239 0.0 1.7 0.00 0.00 0.00 64 1009.5
20260505060015 60 239 0.9 2.6 0.00 0.00 0.00 64 1009.6
20260505054517 60 239 0.9 2.6 0.00 0.00 0.00 63 1009.6
20260505053021 60 240 0.9 3.5 0.00 0.00 0.00 62 1009.6
20260505051521 60 239 0.0 2.6 0.00 0.00 0.00 62 1009.7
20260505041528 61 193 0.9 4.3 0.00 0.00 0.00 58 1009.9
20260505040012 62 228 1.7 3.5 0.00 0.00 0.00 57 1009.8
20260505034507 62 210 1.7 5.2 0.00 0.00 0.00 56 1009.9
20260505033005 62 237 1.7 5.2 0.00 0.00 0.00 55 1010.0
20260505031509 62 211 0.9 7.0 0.00 0.00 0.00 55 1010.1
20260505030013 63 185 2.6 6.1 0.00 0.00 0.00 54 1010.1
20260505024536 63 185 1.7 7.8 0.00 0.00 0.00 53 1010.1
20260505023025 64 204 2.6 8.7 0.00 0.00 0.00 52 1010.2
20260505021536 64 153 4.3 9.6 0.00 0.00 0.00 51 1010.2
20260505020031 65 139 2.6 9.6 0.00 0.00 0.00 50 1010.3
20260505014537 65 176 4.3 10.4 0.00 0.00 0.00 48 1010.2
20260505013035 66 151 0.9 8.7 0.00 0.00 0.00 45 1010.1
20260505011549 67 202 2.6 6.1 0.00 0.00 0.00 40 1009.9
20260505010047 68 169 2.6 7.8 0.00 0.00 0.00 39 1009.5
20260505004549 68 220 0.9 5.2 0.00 0.00 0.00 39 1009.3
20260505003057 68 156 2.6 6.1 0.00 0.00 0.00 37 1009.2
20260505001547 69 279 4.3 9.6 0.00 0.00 0.00 36 1009.0
20260505000042 69 232 3.5 10.4 0.00 0.00 0.00 36 1008.7
20260504234541 70 235 2.6 11.3 0.00 0.00 0.00 35 1008.6
20260504233049 70 285 7.0 13.9 0.00 0.00 0.00 35 1008.3
20260504231602 71 237 3.5 7.0 0.00 0.00 0.00 34 1008.3
20260504230100 71 251 4.3 12.2 0.00 0.00 0.00 34 1008.1
20260504224506 72 218 5.2 13.9 0.00 0.00 0.00 33 1008.1
20260504223005 72 253 4.3 13.9 0.00 0.00 0.00 32 1008.1
20260504221506 73 253 2.6 10.4 0.00 0.00 0.00 33 1008.1
20260504220016 73 283 5.2 13.0 0.00 0.00 0.00 32 1008.3
20260504214554 73 229 6.1 13.0 0.00 0.00 0.00 33 1008.4
20260504213040 73 267 5.2 14.8 0.00 0.00 0.00 32 1008.6
20260504211549 73 245 4.3 15.6 0.00 0.00 0.00 31 1008.6
20260504210107 74 158 1.7 7.0 0.00 0.00 0.00 31 1008.5
20260504204603 73 244 7.8 16.5 0.00 0.00 0.00 31 1008.7
20260504204502 73 233 5.2 12.2 0.00 0.00 0.00 31 1008.5
20260504203019 73 272 6.1 17.4 0.00 0.00 0.00 31 1008.6
20260504201515 72 231 4.3 13.0 0.00 0.00 0.00 33 1008.8
20260504200016 72 197 6.1 16.5 0.00 0.00 0.00 31 1008.9
20260504194533 72 251 4.3 18.2 0.00 0.00 0.00 33 1009.0
20260504193026 73 208 6.1 14.8 0.00 0.00 0.00 32 1009.0
20260504191509 71 177 4.3 13.9 0.00 0.00 0.00 33 1009.2
20260504190010 71 276 3.5 18.2 0.00 0.00 0.00 33 1009.5
20260504184514 71 278 5.2 14.8 0.00 0.00 0.00 33 1009.7
20260504183022 71 231 7.8 15.6 0.00 0.00 0.00 33 1009.9
20260504181524 70 200 7.0 15.6 0.00 0.00 0.00 34 1010.0
20260504180032 70 258 8.7 17.4 0.00 0.00 0.00 34 1010.1